Regional Weather Roundup
Issued by NWS

Home | Current Version | Previous Version | Text Only | Print | Product List | Glossary Off
Versions: 1 2 3 4 5 6 7 8 9 10 11 12 13 14 15 16 17 18 19 20 21 22 23 24 25 26 27 28 29 30 31 32 33 34 35 36 37 38 39 40 41 42 43 44 45 46 47 48 49 50

000
ASUS43 KIND 242309
RWRIN

WEATHER ROUNDUP FOR INDIANA
NATIONAL WEATHER SERVICE INDIANAPOLIS IN
600 PM EST MON NOV 24 2014

NOTE: "FAIR" INDICATES FEW OR NO CLOUDS BELOW 12,000 FEET WITH NO
SIGNIFICANT WEATHER AND/OR OBSTRUCTIONS TO VISIBILITY.

* - STATION DOES NOT REPORT WEATHER SUCH AS PRECIPITATION OR FOG.

+ - STATION NOT QUALITY CONTROLLED BY THE NATIONAL WEATHER SERVICE.
    USE DATA WITH CAUTION...ESPECIALLY DEWPOINT AND RELATIVE
    HUMIDITY OBSERVATIONS.

INZ001>003-010>013-019-020-250000-
NORTHWEST INDIANA

CITY           SKY/WX    TMP DP  RH WIND       PRES   REMARKS
GARY /AIRPORT/ CLOUDY    32  27  80 SW17G35   29.62R WCI  21
KNOX *+        CLOUDY    32  29  89 SW20G32   29.64R WCI  20
LA PORTE +     CLOUDY    33  31  92 SW25G38   29.62R WCI  20
MICHIGAN CITY+ CLOUDY    32  30  93 SW20G36   29.62R WCI  20
MONTICELLO +   CLOUDY    33  28  81 SW23G31   29.70R WCI  20
RENSSELAER +   CLOUDY    32  32 100 SW21G26   29.69R WCI  20
VALPARAISO     CLOUDY    31  28  89 W30G43    29.64R WCI  16

$$

LMZ046-743>745-250000-
SOUTHERN LAKE MICHIGAN

STATION/POSITION TIME  TEMP WIND        PRES
                       AIR  DIR/SP/G
                 (UTC) (F)  (DEG/KT/KT) (MB)
MICHIGAN CITY    2300   32  200/ 31/ 36   N/A

$$

INZ004-005-014>016-021>024-250000-
NORTH CENTRAL INDIANA

CITY           SKY/WX    TMP DP  RH WIND       PRES   REMARKS
ELKHART        CLOUDY    32  28  86 SW25G38   29.60R FOG     WCI  19
GOSHEN         LGT RAIN  40  29  64 SW28G38   29.61R
LOGANSPORT +   CLOUDY    32  28  86 SW29G39   29.71R WCI  18
PERU/GRISSOM   CLOUDY    34  32  92 W25G39    29.70R WCI  21
ROCHESTER +    CLOUDY    34  30  86 SW21G33   29.68R WCI  22
SOUTH BEND     CLOUDY    32  32 100 SW25G36   29.60R WCI  19
WARSAW +       CLOUDY    32  28  86 SW29G36   29.63R WCI  18

$$

INZ006>009-017-018-025>027-250000-
NORTHEAST INDIANA

CITY           SKY/WX    TMP DP  RH WIND       PRES   REMARKS
ANGOLA *+      CLOUDY    34  28  80 SW24G36   29.58R WCI  21
AUBURN +       CLOUDY    34  28  80 SW21G29   29.63R WCI  22
FORT WAYNE     CLOUDY    35  27  72 SW29G51   29.65R WCI  22
HUNTINGTON +   CLOUDY    34  28  79 W22G39    29.68R WCI  22

$$

INZ028-029-035-036-043>045-051>053-250000-
WEST CENTRAL INDIANA

CITY           SKY/WX    TMP DP  RH WIND       PRES   REMARKS
CRAWFORDSVL +  CLOUDY    32  27  80 SW16G30   29.76R WCI  21
GREENCASTLE +  CLOUDY    36  28  75 W14G23    29.79R
LAFAYETTE      CLOUDY    34  26  72 W17G29    29.74R WCI  23
TERRE HAUTE    CLOUDY    39  29  67 SW21      29.80R

$$

INZ030>032-037>040-046>048-054>057-064-065-250000-
CENTRAL INDIANA

CITY           SKY/WX    TMP DP  RH WIND       PRES   REMARKS
CP ATTERBURY + CLOUDY    41  30  65 SW18G28   29.79R
COLUMBUS       MOCLDY    39  30  70 SW18G25   29.80R
FRANKFORT +    CLOUDY    34  30  85 SW21G28   29.75R WCI  22
INDIANAPOLIS   CLOUDY    37  29  72 SW28G35   29.75R
-EAGLE CREEK   CLOUDY    38  29  70 SW9       29.75R
KOKOMO *+      CLOUDY    34  28  80 W21G26    29.72R WCI  22
MARION +         N/A     34  29  83 W32G41    29.73R WCI  20
MT COMFORT *+  CLOUDY    37  25  60 SW20      29.76R
SHELBYVILLE    CLOUDY    40  29  64 SW18G29   29.78R
ZIONSVILLE +   CLOUDY    36  29  74 W23       29.74R

$$

INZ033-034-041-042-049-050-058-059-250000-
EAST CENTRAL INDIANA

CITY           SKY/WX    TMP DP  RH WIND       PRES   REMARKS
MUNCIE         CLOUDY    38  29  70 W18G28    29.72R

$$

INZ060-061-067>069-081>083-085>088-250000-
SOUTHWEST INDIANA

CITY           SKY/WX    TMP DP  RH WIND       PRES   REMARKS
EVANSVILLE     CLOUDY    46  36  68 SW6       29.85R
HUNTINGBURG *+ CLOUDY    45  34  65 W7        29.85R
WASHINGTON +   CLOUDY    42  33  72 W9        29.84R

$$

INZ062-063-066-070>080-084-089>092-250000-
SOUTH CENTRAL AND SOUTHEAST INDIANA

CITY           SKY/WX    TMP DP  RH WIND       PRES   REMARKS
BLOOMINGTON    CLOUDY    40  29  64 W22G29    29.81R
SEYMOUR +      CLOUDY    43  32  65 SW10      29.82

$$




USA.gov is the U.S. government's official web portal to all federal, state and local government web resources and services.